Butte, MT

11:35 AM MST on December 06, 2016 (GMT -0700)
Mooney

Weather History for KBTM - April, 2013

Change the Weather History Date:

Monday, April 8, 2013

  Actual Average Record
Temperature  
Mean Temperature 23 °F 37 °F  
Max Temperature 29 °F 49 °F 73 °F (1996)
Min Temperature 16 °F 25 °F -16 °F (1982)
Degree Days  
Heating Degree Days 42 28  
Month to date heating degree days 199 228  
Since 1 July heating degree days 7614 7839  
Cooling Degree Days 0 0  
Month to date cooling degree days 0 0  
Year to date cooling degree days 0 0  
Moisture  
Dew Point 15 °F    
Average Humidity 64    
Maximum Humidity 78    
Minimum Humidity 50    
Precipitation  
Precipitation T in 0.04 in 0.69 in (1943)
Month to date precipitation 0.10 0.28  
Year to date precipitation 0.76 1.94  
Sea Level Pressure  
Sea Level Pressure 29.98 in    
Wind  
Wind Speed 10 mph (North)    
Max Wind Speed 29 mph    
Max Gust Speed 32 mph    
Visibility 9 miles    
Events Snow    
T = Trace of Precipitation, MM = Missing Value Source: NWS Daily Summary

Daily Weather History Graph

Daily Weather History Graph

Search for Another Location

Airport or City:

Trip Planner

Search our weather history database for the weather conditions in past years. The results will help you decide how hot, cold, wet, or windy it might be!

Date:

Astronomy

Apr. 08, 2013 Rise Set
Actual Time 6:56 AM MDT 8:08 PM MDT
Civil Twilight 6:25 AM MDT 8:38 PM MDT
Nautical Twilight 5:48 AM MDT 9:15 PM MDT
Astronomical Twilight 5:09 AM MDT 9:55 PM MDT
Moon 5:52 AM MDT (4/8) 6:43 PM MDT (4/8)
Length of Visible Light 14h 13m
Length of Day
13h 12m
Waning Crescent, 3% of the Moon is Illuminated
Apr 8
Waning Crescent
Apr 10
New
Apr 18
First Quarter
Apr 25
Full
May 2
Last Quarter

Hourly Weather History & Observations

Time (MDT) Temp. Windchill Dew Point Humidity Pressure Visibility Wind Dir Wind Speed Gust Speed Precip Events Conditions
12:08 AM 30.2 °F 19.8 °F 24.8 °F 80% 29.71 in 10.0 mi North 13.8 mph 20.7 mph N/A   Overcast
12:53 AM 28.9 °F 16.5 °F 23.0 °F 78% 29.75 in 10.0 mi North 18.4 mph - N/A   Overcast
1:53 AM 27.0 °F 14.7 °F 19.9 °F 75% 29.74 in 10.0 mi North 16.1 mph 27.6 mph 0.00 in   Overcast
2:53 AM 27.0 °F 16.1 °F 19.0 °F 72% 29.78 in 10.0 mi North 12.7 mph 21.9 mph N/A   Overcast
3:53 AM 26.1 °F 15.6 °F 18.0 °F 71% 29.80 in 10.0 mi North 11.5 mph 18.4 mph N/A   Overcast
4:53 AM 24.1 °F 11.5 °F 18.0 °F 77% 29.84 in 5.0 mi NNE 15.0 mph 21.9 mph 0.00 in Snow Light Snow
5:53 AM 23.0 °F 10.6 °F 16.0 °F 74% 29.86 in 8.0 mi North 13.8 mph 20.7 mph 0.00 in Snow Light Snow
6:53 AM 23.0 °F 11.7 °F 15.1 °F 72% 29.86 in 10.0 mi North 11.5 mph 19.6 mph 0.00 in   Overcast
7:53 AM 21.9 °F 7.3 °F 12.9 °F 68% 29.90 in 10.0 mi NNE 18.4 mph 23.0 mph N/A   Overcast
8:08 AM 21.2 °F 7.3 °F 12.2 °F 68% 29.82 in 10.0 mi NNE 16.1 mph 26.5 mph N/A   Overcast
8:16 AM 23.0 °F 10.6 °F 14.0 °F 68% 29.82 in 10.0 mi NNE 13.8 mph 23.0 mph N/A   Overcast
8:25 AM 23.0 °F 10.1 °F 14.0 °F 68% 29.83 in 10.0 mi NNE 15.0 mph 23.0 mph N/A   Overcast
8:53 AM 21.9 °F 9.2 °F 12.9 °F 68% 29.94 in 10.0 mi North 13.8 mph 23.0 mph N/A   Overcast
9:53 AM 23.0 °F 10.1 °F 12.9 °F 65% 29.96 in 10.0 mi NNE 15.0 mph 21.9 mph N/A   Overcast
10:53 AM 24.1 °F 12.0 °F 12.9 °F 62% 29.98 in 10.0 mi North 13.8 mph - N/A   Overcast
11:53 AM 25.0 °F 14.8 °F 14.0 °F 63% 30.00 in 10.0 mi North 10.4 mph 18.4 mph N/A   Overcast
12:53 PM 26.1 °F 15.0 °F 14.0 °F 60% 30.02 in 5.0 mi NNE 12.7 mph - 0.00 in Snow Light Snow
1:53 PM 26.1 °F 21.9 °F 12.9 °F 58% 30.04 in 10.0 mi Variable 3.5 mph - 0.00 in   Overcast
2:53 PM 26.1 °F 16.8 °F 18.0 °F 71% 30.05 in 6.0 mi SW 9.2 mph - 0.00 in Snow Light Snow
3:53 PM 26.1 °F 18.4 °F 18.0 °F 71% 30.06 in 7.0 mi West 6.9 mph - 0.00 in Snow Light Snow
4:53 PM 26.1 °F 21.9 °F 17.1 °F 69% 30.09 in 9.0 mi West 3.5 mph - 0.00 in   Overcast
5:53 PM 27.0 °F 23.0 °F 15.1 °F 61% 30.12 in 10.0 mi SSW 3.5 mph - N/A   Overcast
6:53 PM 27.0 °F 16.7 °F 12.0 °F 53% 30.13 in 10.0 mi North 11.5 mph 18.4 mph N/A   Overcast
7:53 PM 26.1 °F 18.4 °F 10.9 °F 53% 30.17 in 10.0 mi Variable 6.9 mph - N/A   Overcast
8:53 PM 23.0 °F 11.7 °F 10.0 °F 58% 30.22 in 10.0 mi NNE 11.5 mph - N/A   Overcast
9:53 PM 21.0 °F 9.9 °F 9.0 °F 60% 30.25 in 10.0 mi North 10.4 mph - N/A   Overcast
10:53 PM 19.9 °F 12.1 °F 9.0 °F 62% 30.28 in 10.0 mi North 5.8 mph - N/A   Overcast
11:53 PM 19.0 °F 12.3 °F 8.1 °F 62% 30.29 in 10.0 mi Variable 4.6 mph - N/A   Overcast